Погода в Сусумане

Погода в Сусумане : погода сейчас, прогноз погоды и архив. Всё, что Вы хотите узнать о погоде в Сусумане!

Поиск расширенной информации на нашем сайте:

Другие новости

Новости СМИ2

Главная страница сайта

Новости сайта

03.07.2017

Напоминаем, что на нашем специализированном сайте Метеоцентр.Азия вы можете получить высокодетализированные автоматические прогнозы погоды по пунктам России, СНГ и мира в авиационном формате (включающие направление и скорость ветра, видимость, явления погоды, количество и форму облачности, нижнюю и верхнюю границу облачности).


Погода в Сусумане - сегодня

Время (UTC), дата Ветер
(°,м/с) 
Видим.   Явления Облачность Т
(°С)
Тd
(°С)
f(%) Тe
(°С)
Pmin
(гПа)
dP
(гПа)
Po
(мм)
O2
(г/м3)
Тmin Tmax R s Состояние
почвы
18 16.07.18 тихо ()   20000 м    4/3 1000 м верхняя 
[Sc|Ci fib]
+9.6 +8.6 93 +10  1007  -0.6  698  270           
00 17.07.18 230 (ЮЗ) 20000 м    5/3 1000 м средняя, верхняя 
[Cu hum|Ac trans|Ci fib]
+20.9 +9.5 48 +23  1001.7  -1.2  697  259           
03 17.07.18 230 (ЮЗ) 20000 м    8/5 1000 м кучево-дожд., верхняя 
[Cb cap|Ci fib]
+24.4 +9.8 40 +27  998.7  -2  695  255           
09 17.07.18 280 (З) 4{10}  20000 м  {ливн. осадки}  6/6 1000 м кучево-дожд. 
[Cb cap]
+23.8 +8.2 37 +24  999.2  0.5  696  256    +25.4  0.0     
12 17.07.18 170 (Ю) 20000 м  {ливн. осадки}  4/4 1000 м 
[Sc]
+16.4 +9.4 63 +19  1003.3  0.5  697  263           
15 17.07.18 210 (ЮЗ) 20000 м    6/3 1000 м верхняя 
[Sc|Ci fib]
+10.6 +7.1 79 +11  1006.4  1.3  698  269           
18 17.07.18 030 (СВ) 20000 м    8/3 1000 м верхняя 
[Sc|Ci fib]
+5.6 +4.8 95 +6  1007.9  0.1  698  275           
21 17.07.18 070 (В) 20000 м    10/10 1200 м кучево-дожд. 
[Cb cap]
+12 +9.1 82 +14  1004.4  -1.5  697  267  +5.5        сухая 
09 18.07.18 020 (С) 8-15{15}  10 км  ливневой дождь  10/10 1000 м кучево-дожд. 
[Cb cap]
+7.5 +6.5 93 +5  1003.9  2.2  696  272    +19.2     
21 18.07.18 030 (СВ) 4{12}  20000 м  {ливн. осадки}  10/10 840 м кучево-дожд. 
[Cb cap]
+2.9 +1.5 90 +1  1012.4  2.4  701  279  +1.8    18    мокрая 
03 19.07.18 060 (СВ) 20000 м    9/9 1140 м кучево-дожд. 
[Cb cap]
+8.1 +0.5 59 +7  1012.7  0.4  702  274           
06 19.07.18 350 (С) 20000 м    10/10 1170 м кучево-дожд. 
[Cb cap]
+8.5 +0.2 56 +10  1013.2  0.6  702  274           
12 19.07.18 050 (СВ) 20000 м    3/3 1000 м 
[Sc]
+2.6 +0.2 84 +3  1016.8  0.6  704  281           
15 19.07.18 тихо ()   20000 м    ясно 
-2.7 -3.1 97 -3  1019.1  0.7  704  287           
18 19.07.18 060 (СВ) 20000 м    ясно 
-4.2 -4.5 98 -4  1019.9  0.3  704  289           
00 20.07.18 310 (СЗ) 20000 м  {туман}  ясно 
+12.4 +2 49 +14  1013.9  -1.2  704  271           
03 20.07.18 310 (СЗ) 20000 м    ясно 
+18.3 +0.3 30 +20  1011.1  -1.2  703  265           
06 20.07.18 020 (С) 20000 м    ясно 
+21.3 -0.1 24 +21  1009  -1.2  702  262           
09 20.07.18 270 (З) 20000 м    ясно 
+21.4 +1.5 27 +21  1008.8  -0.2  702  262    +21.8       
12 20.07.18 220 (ЮЗ) 20000 м    ясно 
+9.4 +4.6 72 +9  1012.4  0.4  702  273           
15 20.07.18 110 (В) 20000 м    ясно 
+1.8 +0.2 89 +1  1015  0.4  702  281           
18 20.07.18 110 (В) 20000 м    ясно 
-0.4 -1.1 95 1015.8  0.1  702  283           
00 21.07.18 210 (ЮЗ) 20000 м    6/0 верхняя 
[Ci fib]
+19 +4.4 38 +20  1008.3  -1.4  701  263           
03 21.07.18 200 (Ю) 20000 м    8/0 верхняя 
[Ci]
+24.5 +5.9 30 +25  1004.6  -2  699  258           
06 21.07.18 220 (ЮЗ) 20000 м    8/0 верхняя 
[Ci fib]
+26.3 +5.3 26 +26  1002.7  -1.3  698  256           
Время (UTC), дата Ветер
(°,м/с) 
Видим.   Явления Облачность Т
(°С)
Тd
(°С)
f(%) Тe
(°С)
Pmin
(гПа)
dP
(гПа)
Po
(мм)
O2
(г/м3)
Тmin Tmax R s Состояние
почвы

Для получения пояснительной информации подведите курсор к названию столбца.

ПОГОДА в Сусумане - архив

Всё, что Вы хотите узнать о погоде в Сусумане - удобно и подробно!

Выберите нужную дату (начиная с 1 января 2015* года) и нажмите кнопку "Найти".
Будут отображены архивные сводки погоды по пункту Сусуман, начиная с указанной даты.


Отображать данные в формате CSV (для использования в таблицах Excel)


Внимание! Наш архив погоды предназначен исключительно для личного некоммерческого использования в познавательных целях. Если Вам необходимы официальные справки о состоянии погоды (для производственных, юридических, коммерческих и т.п. целей), обращайтесь в органы Росгидромета.

*Примечание: данная дата относится к архиву по метеостанциям СССР (Россия, СНГ, Балтия).
Архив по метеостанциям Зарубежной Европы и Азии (кроме Китая) хранится 10 дней, по другим регионам земного шара (Китай, Африка, Америка, Австралия, Океания) - 1 день.

Сусуман - район местоположения метеостанции


Название, широта, долгота, высота метеостанции:
Сусуман 62.8°ш. 148.2°д. 655 м над ур. моря [Российская Федерация]

Дополнительная информация

В oтличие oт бoльшинства пoгoдных сайтoв мы публикуем пoдрoбную метеoинфoрмацию в детальнoм прoфессиoнальнoм фoрмате.

Характеристики температуры и влажнoсти вoздуха измеряются на высoте 2 м в тени вдали oт зданий и деревьев.
Скoрoсть ветра измеряется на высoте 10 м (на урoвне рoста челoвека скoрoсть ветра ниже в 1.5-2 раза). Если метеoстанция нахoдится в гoрoде или в лесу, тo скoрoсть ветра занижена на 2-4 м/с пo сравнению с oткрытым местoм. Скoрoсть ветра над акватoриями крупных рек и oзёр, а также на вершинах хoлмoв на 2-5 м/с выше, чем в oбычных услoвиях.
Атмoсфернoе давление в разных тoчках местнoсти мoжет значительнo oтличаться oт давления на метеoстанции, в зависимoсти oт услoвий рельефа (при пoдъёме на 10 м давление пoнижается примернo на 1 мм рт.ст.).